Wind_Speed
13 14 14 12 11 8 6 1 4 5 4 3 5 10 15 21 33 36 33 30 27 26 28 27 29 30 30 28 30 30 30 26 24 27 31 42 40 43 41 34 17 18 24 34 42
14 14 13 13 11 10 7 5 5 10 9 10 10 12 15 15 16 29 37 34 32 31 30 30 30 30 30 30 30 30 31 26 26 36 36 38 37 42 42 38 31 29 30 35 40
15 14 13 12 12 10 8 6 5 6 11 13 13 14 15 12 14 17 27 33 35 36 35 32 33 32 31 32 30 31 29 29 27 39 35 33 35 39 39 39 39 39 36 39 41
14 15 14 13 11 9 8 8 6 5 6 8 13 12 16 17 17 16 17 24 29 28 32 37 37 36 35 33 32 36 29 30 29 39 36 33 38 43 44 42 42 44 46 43 47
15 15 14 13 12 10 8 6 5 5 4 5 5 8 9 15 18 18 18 18 20 23 25 27 33 32 33 35 39 37 33 33 34 39 37 40 39 43 46 43 45 46 48 47 46
12 14 15 12 10 9 8 6 5 4 5 6 6 6 7 9 11 13 15 16 18 19 23 24 25 26 28 33 34 37 37 36 37 41 42 42 42 44 41 48 46 46 47 47 48
9 11 13 13 12 10 8 6 5 3 2 1 3 6 8 9 10 11 12 14 15 16 17 19 21 24 27 30 32 31 35 38 39 41 43 44 45 48 50 51 52 51 52 52 52
8 8 11 11 11 11 9 9 5 3 2 1 3 3 5 7 8 11 13 15 17 19 21 22 24 26 27 29 31 33 36 39 41 43 45 46 45 46 49 52 52 52 54 55 55
10 9 8 10 10 9 7 7 6 5 3 1 0 3 5 7 9 9 11 13 15 17 19 21 23 25 27 29 31 36 35 37 36 39 43 45 44 45 45 45 48 50 52 54 55
11 11 9 8 9 9 8 7 5 3 3 2 1 1 2 3 4 6 8 10 12 14 16 17 19 21 24 24 25 27 32 32 32 31 37 41 43 42 46 48 47 47 48 49 51
11 10 9 8 9 9 10 9 7 5 4 3 2 2 3 4 5 7 8 9 11 12 14 16 19 20 22 23 24 23 25 26 26 28 35 38 41 42 43 45 45 47 47 47 47
14 12 11 10 10 11 11 9 9 8 8 8 7 7 7 8 9 10 11 13 14 16 17 20 25 20 19 19 19 21 23 25 27 29 33 35 39 40 40 41 42 42 42 46 45
15 16 15 13 12 12 11 10 10 10 10 11 11 12 12 12 13 14 16 17 18 20 21 22 26 24 22 21 20 21 26 25 28 27 29 39 42 40 32 36 32 33 37 43 48
13 13 14 13 11 10 9 11 11 12 11 13 12 13 15 16 16 18 19 20 20 21 22 22 18 19 20 21 21 20 22 22 25 28 31 35 43 32 31 29 26 21 34 42 43
14 16 16 15 13 13 14 14 15 16 18 15 15 17 19 20 22 16 22 22 22 22 20 23 19 20 20 20 20 20 20 23 24 27 30 29 38 21 12 19 21 21 35 41 41
16 18 17 16 16 15 16 18 19 19 19 19 19 21 23 23 21 23 21 22 22 21 20 21 22 21 19 22 22 22 23 24 27 29 32 35 36 32 30 27 25 30 37 39 42
22 21 20 18 15 17 18 18 19 21 23 22 20 20 21 24 26 19 23 23 20 21 21 19 22 22 21 22 23 27 27 29 30 30 30 30 32 31 32 33 34 41 29 40 44
23 23 22 22 19 17 17 18 20 23 21 16 21 20 21 21 21 19 20 23 19 18 20 18 23 22 22 24 25 30 31 34 36 36 34 29 30 29 29 32 35 46 56 49 48
25 23 24 22 19 17 15 17 16 17 16 14 18 15 21 18 17 16 18 21 20 20 22 24 23 26 26 28 28 31 33 37 38 37 36 35 30 32 30 35 36 44 46 50 42
23 23 21 19 16 13 12 14 9 11 10 11 12 13 14 20 19 19 19 20 21 20 22 29 29 26 30 33 32 34 35 37 37 39 39 36 33 30 29 35 40 40 40 42 48
21 19 19 16 13 12 11 10 8 7 10 11 13 14 15 16 18 19 21 28 24 23 25 29 31 30 30 29 33 36 36 38 41 41 41 43 39 29 28 33 42 44 45 47 48
20 17 15 14 13 13 11 9 12 13 12 13 15 15 16 16 17 19 22 27 29 29 30 31 38 38 35 34 35 38 39 41 41 40 39 45 44 31 33 40 42 45 49 47 47
21 18 19 17 15 14 12 14 11 14 15 15 17 18 20 21 24 21 23 29 34 37 35 36 41 44 42 40 43 42 40 40 43 45 43 47 46 38 39 41 45 43 44 48 50
24 22 20 20 15 16 14 17 18 17 16 19 19 21 23 23 26 30 30 31 33 38 43 44 45 45 45 45 45 43 42 43 46 50 46 48 48 42 44 46 46 45 46 46 46
26 21 24 21 18 17 17 18 19 20 21 22 21 25 28 29 32 33 36 37 38 39 46 50 53 51 51 47 47 48 47 44 47 49 51 47 46 45 49 51 48 47 49 50 49
24 23 22 23 22 20 21 19 19 24 24 26 30 30 31 36 41 42 41 42 46 45 45 48 53 53 53 49 48 50 46 43 46 49 48 49 48 48 48 48 49 51 55 54 54
24 23 22 24 23 24 25 24 24 27 26 31 34 37 37 38 43 46 48 48 48 48 46 50 52 52 56 51 53 56 43 46 47 48 45 44 50 48 49 50 50 52 54 55 54
Wind_Direction
15 17 25 30 31 36 53 59 116 117 121 118 133 198 200 200 201 208 213 217 222 227 225 228 226 228 229 231 235 234 237 237 240 240 224 231 236 247 256 258 264 277 271 273 268
19 23 25 32 41 45 50 95 188 170 172 195 203 209 206 210 206 210 213 220 225 230 230 233 233 232 235 236 238 239 244 245 249 248 241 247 245 256 265 268 267 262 264 264 269
16 29 30 32 39 51 65 83 118 179 202 203 174 201 213 220 217 222 218 223 228 233 235 238 236 237 239 239 245 247 247 250 253 259 254 259 267 264 266 270 271 271 266 265 260
22 22 28 34 44 45 55 70 80 112 140 175 187 193 183 191 209 214 223 227 231 240 244 242 243 251 246 244 249 252 256 255 256 264 267 263 263 266 271 271 273 272 271 267 271
18 19 24 28 32 41 46 68 88 101 122 144 160 175 184 186 192 199 210 218 224 235 243 248 251 257 259 253 253 258 261 263 265 264 266 266 263 263 268 271 267 268 269 271 269
20 24 16 16 21 22 25 33 56 102 135 151 156 167 179 190 199 208 216 222 226 229 231 235 240 246 242 247 252 257 260 264 262 266 264 262 264 269 268 269 271 270 270 272 271
6 14 20 23 28 34 34 19 8 9 29 91 157 183 196 202 214 223 228 233 239 244 248 248 250 252 254 255 259 262 263 265 266 267 269 265 266 268 269 268 268 271 271 268 266
352 2 6 18 27 28 34 29 32 10 326 278 256 245 239 238 240 237 243 247 250 253 254 255 256 257 260 262 265 266 267 267 268 269 270 268 267 270 272 273 273 273 271 269 269
353 349 359 359 4 12 22 30 31 30 30 26 162 214 244 239 238 245 249 251 253 256 258 259 261 263 263 263 264 266 265 268 270 271 272 271 269 269 268 268 274 274 272 271 270
0 351 341 344 352 345 342 345 359 1 21 23 49 268 254 254 259 258 264 267 269 268 267 265 265 265 267 268 268 268 270 270 272 278 280 280 280 283 286 284 279 276 274 272 271
353 352 347 331 327 333 329 313 306 307 304 304 312 286 256 270 278 279 278 275 270 269 265 267 269 268 269 266 266 266 275 279 280 286 285 286 287 288 286 286 287 286 285 283 277
337 337 332 325 318 311 308 303 286 281 286 286 291 296 289 292 292 289 284 280 282 281 281 279 278 282 272 279 286 292 293 290 294 296 296 296 290 290 296 296 291 285 280 277 278
335 336 330 322 318 312 306 300 288 277 272 274 278 287 278 280 281 280 280 280 279 283 285 286 290 292 290 289 291 293 293 302 306 309 321 311 300 297 291 282 291 293 289 282 278
344 346 347 342 329 320 309 306 298 289 288 281 280 275 277 279 285 288 283 283 285 287 288 283 282 284 288 287 292 296 302 309 317 316 320 326 311 309 293 277 269 267 276 282 289
338 332 330 327 318 312 306 298 294 293 289 282 277 281 279 280 287 274 288 284 285 284 281 281 278 274 278 284 289 291 294 300 306 313 321 329 331 343 292 284 264 263 253 256 273
344 341 331 319 308 299 289 285 287 288 283 279 284 282 281 277 278 288 280 277 282 281 279 280 284 279 280 287 287 290 291 297 306 315 325 331 334 342 308 281 271 272 246 245 265
345 345 340 332 316 303 290 281 283 279 277 293 281 281 281 289 289 285 281 281 273 273 271 273 277 277 275 288 292 293 295 298 303 312 318 323 324 323 311 294 279 273 270 290 288
345 345 342 338 330 311 293 285 275 281 298 288 290 288 287 287 289 286 280 280 271 267 270 277 287 290 290 289 295 295 299 300 304 306 312 314 314 318 316 301 286 283 283 279 281
344 344 339 339 328 317 306 291 297 288 288 290 286 291 293 287 282 276 281 281 277 269 275 280 281 291 293 293 298 295 297 298 298 299 303 306 305 309 313 307 294 280 281 281 283
337 337 333 327 323 319 313 311 316 292 298 294 294 297 288 294 299 292 292 287 279 276 275 278 278 285 287 291 292 289 292 291 292 294 297 298 294 307 307 311 302 292 276 277 282
330 330 327 321 316 315 321 317 316 310 307 299 299 299 296 294 297 295 293 289 292 295 290 288 289 288 288 289 286 289 289 288 290 292 296 295 294 311 304 296 300 295 287 282 280
322 316 310 305 304 313 303 308 312 312 302 298 299 300 300 299 299 298 294 291 296 294 293 292 289 291 292 287 283 285 286 285 285 285 287 289 292 295 298 291 293 292 297 293 287
315 311 304 295 297 296 306 302 306 301 301 299 300 302 301 303 302 300 299 298 300 299 298 296 293 293 292 293 292 289 286 284 284 284 286 288 291 297 292 290 290 293 295 291 288
305 304 290 296 291 288 293 300 302 301 297 302 308 309 309 311 311 312 309 305 302 300 300 298 293 292 291 291 289 286 286 286 287 287 288 283 290 288 288 289 293 302 302 294 284
308 302 297 296 282 279 287 294 301 300 306 304 301 304 306 310 306 306 307 303 298 298 297 297 295 295 292 292 290 287 283 280 283 283 280 283 286 292 291 295 299 298 298 298 293
309 307 300 293 287 282 281 289 294 295 299 299 301 302 304 304 306 306 298 298 300 296 295 294 295 296 295 298 294 288 289 291 282 279 280 286 288 289 293 298 300 301 302 299 293
312 307 303 298 294 286 285 288 289 291 294 295 297 299 301 301 298 299 300 300 299 298 297 292 293 294 293 295 290 287 298 285 283 280 286 285 288 289 292 295 299 300 299 296 295
Height
5820 5818 5816 5814 5812 5812 5811 5811 5812 5814 5817 5819 5822 5826 5829 5833 5838 5844 5849 5853 5856 5859 5863 5865 5868 5870 5873 5876 5876 5877 5881 5885 5888 5888 5890 5882 5885 5887 5889 5892 5895 5898 5898 5893 5892
5821 5819 5817 5816 5815 5814 5813 5813 5814 5815 5818 5821 5824 5827 5830 5834 5838 5842 5846 5849 5853 5856 5859 5861 5864 5867 5869 5871 5872 5873 5876 5882 5883 5878 5882 5881 5885 5884 5886 5888 5890 5891 5893 5890 5888
5822 5821 5819 5817 5816 5816 5815 5815 5815 5816 5818 5820 5823 5826 5829 5833 5837 5840 5843 5847 5849 5852 5855 5857 5859 5863 5865 5866 5868 5869 5874 5875 5878 5871 5877 5880 5879 5879 5881 5881 5882 5882 5885 5884 5884
5824 5822 5820 5819 5818 5817 5817 5817 5818 5818 5819 5821 5822 5824 5827 5831 5836 5838 5841 5845 5847 5849 5851 5853 5856 5858 5860 5862 5863 5864 5868 5870 5872 5867 5872 5875 5872 5871 5871 5875 5876 5874 5873 5877 5874
5824 5823 5822 5821 5819 5819 5818 5819 5819 5820 5821 5822 5823 5825 5828 5830 5832 5835 5838 5841 5843 5845 5847 5849 5851 5854 5856 5857 5858 5860 5861 5863 5864 5863 5864 5863 5865 5864 5864 5866 5865 5865 5864 5865 5867
5826 5824 5822 5821 5821 5820 5819 5819 5820 5820 5821 5823 5824 5826 5829 5831 5832 5834 5836 5838 5839 5841 5843 5845 5847 5848 5849 5851 5853 5852 5855 5855 5855 5854 5855 5856 5856 5855 5858 5854 5856 5857 5856 5856 5856
5827 5826 5824 5822 5821 5821 5820 5819 5819 5819 5820 5822 5823 5825 5827 5830 5830 5832 5834 5836 5837 5838 5840 5840 5842 5843 5844 5845 5847 5846 5846 5847 5847 5846 5846 5847 5848 5846 5846 5846 5846 5846 5846 5847 5848
5827 5826 5825 5824 5823 5822 5821 5821 5820 5820 5820 5821 5822 5824 5825 5826 5828 5830 5831 5832 5833 5834 5835 5836 5837 5839 5840 5840 5840 5840 5840 5839 5838 5837 5837 5838 5840 5838 5837 5835 5836 5834 5834 5834 5835
5827 5826 5825 5824 5823 5823 5822 5821 5821 5821 5821 5821 5822 5823 5824 5825 5826 5827 5828 5829 5830 5831 5831 5832 5833 5833 5833 5833 5833 5830 5834 5832 5832 5829 5828 5828 5830 5828 5827 5826 5824 5822 5821 5820 5821
5827 5825 5824 5824 5823 5822 5822 5821 5821 5821 5821 5821 5821 5823 5824 5824 5824 5825 5825 5826 5826 5826 5827 5828 5828 5827 5827 5827 5827 5826 5824 5824 5823 5822 5818 5816 5817 5816 5813 5811 5812 5810 5809 5809 5808
5825 5824 5823 5822 5822 5821 5821 5820 5821 5821 5819 5820 5821 5821 5821 5822 5821 5822 5822 5822 5823 5823 5823 5822 5822 5821 5820 5820 5819 5819 5816 5814 5815 5813 5810 5808 5807 5806 5804 5801 5799 5796 5794 5792 5792
5823 5822 5821 5820 5819 5818 5818 5818 5818 5818 5818 5817 5817 5818 5818 5818 5818 5818 5818 5819 5817 5817 5817 5816 5814 5816 5813 5811 5810 5808 5807 5807 5806 5803 5801 5798 5798 5795 5793 5788 5783 5783 5783 5780 5779
5821 5819 5818 5817 5816 5815 5814 5814 5814 5814 5815 5815 5814 5814 5814 5815 5814 5814 5813 5812 5812 5811 5810 5809 5805 5805 5804 5803 5803 5803 5800 5799 5796 5795 5794 5783 5785 5782 5783 5775 5774 5769 5766 5762 5765
5820 5818 5816 5815 5815 5813 5812 5811 5810 5810 5810 5810 5810 5809 5809 5808 5808 5807 5806 5806 5805 5804 5802 5802 5801 5799 5797 5797 5797 5796 5793 5791 5790 5788 5786 5776 5771 5776 5767 5765 5763 5764 5757 5753 5754
5818 5816 5815 5812 5811 5810 5809 5807 5806 5806 5805 5807 5805 5804 5803 5803 5802 5804 5799 5799 5798 5797 5798 5796 5796 5794 5793 5792 5790 5789 5788 5787 5785 5783 5779 5775 5766 5770 5757 5760 5754 5753 5748 5744 5745
5816 5814 5811 5810 5808 5807 5805 5804 5803 5803 5800 5800 5800 5798 5797 5797 5797 5795 5795 5794 5793 5792 5792 5791 5788 5788 5788 5786 5784 5783 5782 5780 5778 5775 5771 5764 5758 5758 5753 5756 5751 5747 5737 5738 5740
5812 5810 5808 5806 5804 5802 5800 5799 5799 5796 5795 5795 5794 5793 5792 5791 5788 5791 5788 5787 5789 5788 5787 5787 5784 5784 5784 5782 5779 5776 5774 5772 5771 5769 5766 5761 5756 5750 5742 5743 5744 5739 5732 5732 5731
5808 5806 5803 5801 5798 5796 5795 5794 5792 5790 5790 5791 5788 5788 5787 5786 5785 5784 5783 5781 5783 5783 5781 5782 5779 5778 5777 5775 5774 5769 5766 5763 5759 5758 5758 5756 5749 5745 5741 5735 5732 5730 5723 5723 5725
5804 5801 5799 5795 5793 5791 5790 5788 5788 5787 5787 5786 5784 5784 5779 5781 5780 5779 5778 5777 5776 5777 5777 5775 5776 5772 5770 5768 5767 5763 5759 5754 5751 5748 5747 5746 5742 5736 5732 5727 5726 5723 5720 5715 5711
5801 5797 5795 5792 5790 5788 5786 5784 5785 5783 5782 5781 5781 5780 5778 5775 5775 5773 5772 5771 5770 5771 5771 5767 5766 5768 5764 5761 5759 5754 5752 5748 5743 5738 5736 5735 5732 5730 5724 5716 5712 5711 5710 5707 5701
5796 5794 5791 5788 5786 5784 5782 5782 5781 5780 5779 5778 5776 5775 5774 5772 5771 5769 5768 5763 5764 5764 5763 5760 5759 5759 5757 5755 5750 5747 5743 5737 5733 5727 5723 5720 5722 5721 5717 5709 5703 5697 5694 5691 5689
5791 5790 5787 5785 5784 5781 5780 5778 5776 5776 5775 5774 5772 5770 5768 5767 5766 5764 5762 5758 5756 5755 5754 5753 5747 5747 5747 5744 5740 5737 5733 5727 5723 5722 5715 5707 5707 5712 5707 5701 5694 5684 5680 5677 5673
5785 5785 5781 5780 5779 5777 5776 5773 5773 5771 5770 5769 5767 5766 5764 5762 5760 5760 5758 5754 5749 5746 5745 5743 5738 5734 5735 5732 5727 5725 5723 5717 5712 5707 5707 5697 5695 5696 5694 5688 5682 5678 5671 5666 5661
5781 5778 5778 5775 5774 5772 5771 5769 5768 5767 5766 5763 5761 5759 5758 5757 5754 5751 5750 5748 5745 5738 5733 5730 5727 5725 5723 5719 5715 5714 5710 5705 5699 5694 5692 5688 5682 5684 5678 5674 5671 5666 5660 5653 5648
5775 5775 5770 5770 5770 5767 5766 5765 5763 5761 5760 5758 5757 5754 5752 5750 5747 5745 5742 5738 5735 5732 5724 5718 5712 5710 5707 5707 5703 5698 5697 5697 5691 5685 5674 5679 5672 5668 5660 5659 5658 5653 5646 5639 5632
5770 5768 5767 5765 5763 5762 5759 5759 5758 5755 5754 5752 5749 5748 5746 5741 5736 5733 5731 5729 5723 5721 5715 5708 5698 5694 5690 5691 5688 5681 5683 5682 5676 5671 5665 5661 5660 5657 5652 5646 5641 5636 5629 5623 5617
5765 5763 5762 5759 5758 5756 5754 5753 5751 5748 5748 5744 5741 5738 5736 5734 5728 5723 5719 5715 5710 5705 5702 5693 5688 5683 5677 5677 5670 5665 5673 5665 5662 5658 5655 5651 5646 5645 5640 5636 5631 5625 5616 5609 5605